| time (UTC) | temp F | wind direction | speed knots | gust knots | rain 1hr in | rain 24hr in | rain mn in | humidity % | barometer mb |
| 20260831165123 | 70 | 203 | 0.0 | 2.6 | 0.00 | 0.07 | 0.07 | 70 | 1014.0 |
| 20260831164100 | 70 | 264 | 0.9 | 3.5 | 0.00 | 0.07 | 0.07 | 69 | 1014.2 |
| 20260831162054 | 71 | 180 | 0.0 | 2.6 | 0.00 | 0.07 | 0.07 | 65 | 1014.1 |
| 20260831161051 | 72 | 207 | 0.9 | 3.5 | 0.00 | 0.07 | 0.07 | 64 | 1013.9 |
| 20260831160047 | 72 | 79 | 0.9 | 3.5 | 0.00 | 0.07 | 0.07 | 63 | 1013.8 |
| 20260831155034 | 73 | 236 | 1.7 | 6.1 | 0.00 | 0.07 | 0.07 | 62 | 1013.8 |
| 20260831154130 | 73 | 251 | 0.9 | 3.5 | 0.00 | 0.07 | 0.07 | 63 | 1013.8 |
| 20260831153025 | 73 | 206 | 0.9 | 4.3 | 0.00 | 0.07 | 0.07 | 61 | 1013.7 |
| 20260831151017 | 73 | 218 | 0.9 | 3.5 | 0.00 | 0.07 | 0.07 | 63 | 1013.7 |
| 20260831150113 | 73 | 300 | 0.9 | 3.5 | 0.00 | 0.07 | 0.07 | 66 | 1013.9 |
| 20260831145110 | 72 | 247 | 0.0 | 3.5 | 0.00 | 0.07 | 0.07 | 70 | 1014.0 |
| 20260831143104 | 74 | 195 | 0.9 | 6.1 | 0.00 | 0.07 | 0.07 | 69 | 1014.0 |
| 20260831142120 | 73 | 215 | 0.9 | 6.1 | 0.00 | 0.07 | 0.07 | 70 | 1014.0 |
| 20260831141057 | 73 | 228 | 0.9 | 6.1 | 0.00 | 0.07 | 0.07 | 73 | 1014.2 |
| 20260831135051 | 72 | 169 | 1.7 | 7.0 | 0.00 | 0.07 | 0.07 | 74 | 1014.1 |
| 20260831134047 | 70 | 303 | 1.7 | 7.0 | 0.00 | 0.07 | 0.07 | 75 | 1014.2 |
| 20260831133045 | 67 | 64 | 1.7 | 3.5 | 0.00 | 0.07 | 0.07 | 80 | 1014.3 |
| 20260831132041 | 67 | 296 | 0.9 | 4.3 | 0.00 | 0.07 | 0.07 | 84 | 1014.6 |
| 20260831131038 | 70 | 207 | 2.6 | 9.6 | 0.00 | 0.07 | 0.07 | 78 | 1014.5 |
| 20260831125031 | 73 | 250 | 4.3 | 12.2 | 0.00 | 0.07 | 0.07 | 65 | 1013.9 |
| 20260831124029 | 75 | 227 | 2.6 | 9.6 | 0.00 | 0.07 | 0.07 | 64 | 1013.9 |
| 20260831123025 | 76 | 209 | 1.7 | 7.0 | 0.00 | 0.07 | 0.07 | 61 | 1013.8 |
| 20260831121019 | 73 | 209 | 3.5 | 9.6 | 0.00 | 0.07 | 0.07 | 65 | 1013.8 |
| 20260831120016 | 73 | 292 | 1.7 | 7.8 | 0.00 | 0.07 | 0.07 | 67 | 1013.9 |
| 20260831115113 | 72 | 240 | 0.9 | 2.6 | 0.00 | 0.07 | 0.07 | 69 | 1014.1 |
| 20260831114130 | 72 | 188 | 2.6 | 8.7 | 0.00 | 0.07 | 0.07 | 68 | 1014.2 |
| 20260831111100 | 73 | 153 | 0.9 | 6.1 | 0.00 | 0.07 | 0.07 | 68 | 1014.3 |
| 20260831110056 | 73 | 194 | 1.7 | 3.5 | 0.00 | 0.07 | 0.07 | 66 | 1014.3 |
| 20260831105053 | 73 | 258 | 1.7 | 3.5 | 0.00 | 0.07 | 0.07 | 64 | 1014.3 |
| 20260831104050 | 74 | 220 | 1.7 | 7.0 | 0.00 | 0.07 | 0.07 | 68 | 1014.2 |
| 20260831103047 | 72 | 229 | 2.6 | 8.7 | 0.00 | 0.07 | 0.07 | 67 | 1014.3 |
| 20260831102044 | 71 | 244 | 2.6 | 9.6 | 0.00 | 0.07 | 0.07 | 70 | 1014.3 |
| 20260831101040 | 72 | 231 | 3.5 | 13.0 | 0.00 | 0.07 | 0.07 | 71 | 1014.4 |
| 20260831100037 | 72 | 268 | 2.6 | 9.6 | 0.00 | 0.07 | 0.07 | 72 | 1014.4 |
| 20260831095034 | 70 | 241 | 2.6 | 9.6 | 0.00 | 0.07 | 0.07 | 74 | 1014.4 |
| 20260831094031 | 69 | 235 | 0.9 | 5.2 | 0.00 | 0.07 | 0.07 | 79 | 1014.5 |
| 20260831093049 | 68 | 209 | 2.6 | 7.8 | 0.00 | 0.07 | 0.07 | 80 | 1014.5 |
| 20260831092025 | 67 | 244 | 2.6 | 7.0 | 0.00 | 0.07 | 0.07 | 83 | 1014.7 |
| 20260831090039 | 68 | 215 | 4.3 | 13.0 | 0.00 | 0.07 | 0.07 | 82 | 1014.4 |
| 20260831085015 | 68 | 250 | 3.5 | 13.0 | 0.00 | 0.07 | 0.07 | 83 | 1014.3 |
| 20260831084112 | 68 | 228 | 1.7 | 7.0 | 0.00 | 0.07 | 0.07 | 85 | 1014.3 |
| 20260831082106 | 67 | 279 | 0.9 | 3.5 | 0.00 | 0.07 | 0.07 | 87 | 1014.3 |
| 20260831081102 | 67 | 313 | 1.7 | 4.3 | 0.00 | 0.07 | 0.07 | 88 | 1014.2 |
| 20260831075116 | 66 | 255 | 2.6 | 9.6 | 0.00 | 0.07 | 0.07 | 89 | 1013.9 |
| 20260831073050 | 65 | 248 | 0.9 | 4.3 | 0.00 | 0.07 | 0.07 | 94 | 1013.9 |
| 20260831072107 | 64 | 236 | 1.7 | 8.7 | 0.00 | 0.07 | 0.07 | 95 | 1013.8 |
| 20260831071044 | 64 | 197 | 1.7 | 6.1 | 0.00 | 0.07 | 0.07 | 96 | 1013.7 |
| 20260831065038 | 63 | 224 | 1.7 | 5.2 | 0.00 | 0.07 | 0.07 | 98 | 1013.7 |
| 20260831064035 | 63 | 199 | 0.9 | 5.2 | 0.00 | 0.07 | 0.07 | 98 | 1013.6 |
| 20260831063032 | 62 | 214 | 0.9 | 3.5 | 0.00 | 0.07 | 0.07 | 99 | 1013.5 |
| 20260831062028 | 62 | 214 | 0.9 | 6.1 | 0.00 | 0.07 | 0.07 | 99 | 1013.4 |
| 20260831061025 | 62 | 225 | 0.0 | 7.0 | 0.00 | 0.07 | 0.07 | 99 | 1013.2 |
| 20260831060021 | 62 | 215 | 0.9 | 4.3 | 0.00 | 0.07 | 0.07 | 99 | 1013.2 |
| 20260831055040 | 61 | 180 | 0.0 | 1.7 | 0.00 | 0.07 | 0.07 | 99 | 1013.2 |
| 20260831054015 | 61 | 196 | 0.9 | 4.3 | 0.00 | 0.07 | 0.07 | 99 | 1013.0 |
| 20260831053134 | 61 | 0.0 | 1.7 | 0.00 | 0.07 | 0.07 | 99 | 1012.8 | |
| 20260831052129 | 61 | 225 | 0.0 | 1.7 | 0.00 | 0.07 | 0.07 | 99 | 1012.7 |
| 20260831051106 | 61 | 0.0 | 0.0 | 0.00 | 0.07 | 0.07 | 99 | 1012.6 | |
| 20260831044056 | 61 | 0.0 | 0.0 | 0.00 | 0.08 | 0.07 | 99 | 1012.4 | |
| 20260831043053 | 61 | 0.0 | 0.0 | 0.00 | 0.08 | 0.07 | 99 | 1012.3 | |
| 20260831042050 | 61 | 0.0 | 0.0 | 0.00 | 0.08 | 0.07 | 99 | 1012.3 | |
| 20260831040104 | 61 | 0.0 | 1.7 | 0.02 | 0.08 | 0.07 | 99 | 1011.9 | |
| 20260831035101 | 60 | 180 | 0.0 | 1.7 | 0.02 | 0.08 | 0.07 | 99 | 1011.9 |
| 20260831034037 | 61 | 0.0 | 0.0 | 0.06 | 0.08 | 0.07 | 99 | 1011.7 | |
| 20260831033034 | 61 | 0.0 | 0.0 | 0.07 | 0.08 | 0.07 | 99 | 1012.2 | |
| 20260831032031 | 61 | 0.0 | 0.9 | 0.07 | 0.08 | 0.07 | 99 | 1012.0 | |
| 20260831031017 | 61 | 0.0 | 1.7 | 0.06 | 0.07 | 0.06 | 99 | 1012.3 | |
| 20260831030114 | 61 | 220 | 0.9 | 3.5 | 0.05 | 0.06 | 0.05 | 98 | 1012.4 |
| 20260831023103 | 60 | 0.0 | 0.0 | 0.00 | 0.01 | 0.00 | 98 | 1011.6 | |
| 20260831022059 | 60 | 0.0 | 0.0 | 0.00 | 0.01 | 0.00 | 99 | 1011.5 | |
| 20260831020053 | 59 | 0.0 | 0.0 | 0.00 | 0.01 | 0.00 | 99 | 1011.3 | |
| 20260831015049 | 59 | 0.0 | 0.0 | 0.00 | 0.01 | 0.00 | 99 | 1011.4 | |
| 20260831014046 | 58 | 0.0 | 0.0 | 0.00 | 0.01 | 0.00 | 99 | 1011.5 | |
| 20260831012040 | 57 | 0.0 | 0.0 | 0.00 | 0.01 | 0.00 | 99 | 1011.6 | |
| 20260831011037 | 56 | 0.0 | 0.0 | 0.00 | 0.01 | 0.00 | 99 | 1011.8 | |
| 20260831005030 | 56 | 0.0 | 0.0 | 0.00 | 0.01 | 0.00 | 99 | 1012.0 | |
| 20260831003024 | 55 | 0.0 | 0.0 | 0.00 | 0.01 | 0.00 | 99 | 1012.2 | |
| 20260831002021 | 55 | 0.0 | 0.0 | 0.00 | 0.01 | 0.00 | 99 | 1012.3 | |
| 20260831001018 | 54 | 0.0 | 0.0 | 0.00 | 0.01 | 0.00 | 99 | 1012.5 | |
| 20260831000035 | 54 | 0.0 | 0.0 | 0.00 | 0.01 | 0.00 | 99 | 1012.6 | |
| 20260830235112 | 54 | 0.0 | 0.0 | 0.00 | 0.01 | 0.00 | 99 | 1012.6 | |
| 20260830234109 | 54 | 0.0 | 0.0 | 0.00 | 0.01 | 0.00 | 99 | 1012.7 | |
| 20260830233106 | 54 | 0.0 | 0.0 | 0.00 | 0.01 | 0.00 | 99 | 1012.7 | |
| 20260830232123 | 54 | 0.0 | 0.0 | 0.00 | 0.01 | 0.00 | 99 | 1012.7 | |
| 20260830231059 | 54 | 0.0 | 0.0 | 0.00 | 0.01 | 0.00 | 99 | 1012.9 | |
| 20260830230056 | 54 | 0.0 | 0.0 | 0.00 | 0.01 | 0.00 | 99 | 1013.0 | |
| 20260830225053 | 54 | 0.0 | 0.0 | 0.00 | 0.01 | 0.00 | 99 | 1013.2 | |
| 20260830223047 | 55 | 0.0 | 0.0 | 0.00 | 0.01 | 0.00 | 99 | 1013.3 | |
| 20260830222103 | 55 | 0.0 | 0.0 | 0.00 | 0.01 | 0.00 | 99 | 1013.3 | |
| 20260830221100 | 55 | 0.0 | 0.0 | 0.00 | 0.01 | 0.00 | 99 | 1013.4 | |
| 20260830220037 | 55 | 0.0 | 0.0 | 0.00 | 0.01 | 0.00 | 99 | 1013.4 | |
| 20260830215034 | 55 | 0.0 | 0.0 | 0.00 | 0.01 | 0.01 | 99 | 1013.4 | |
| 20260830213028 | 56 | 0.0 | 0.0 | 0.00 | 0.01 | 0.01 | 99 | 1013.4 | |
| 20260830212025 | 56 | 0.0 | 0.0 | 0.00 | 0.01 | 0.01 | 98 | 1013.4 | |
| 20260830211022 | 57 | 0.0 | 0.0 | 0.00 | 0.01 | 0.01 | 98 | 1013.3 | |
| 20260830205016 | 57 | 0.0 | 0.0 | 0.00 | 0.01 | 0.01 | 98 | 1013.2 | |
| 20260830204113 | 58 | 0.0 | 0.0 | 0.00 | 0.01 | 0.01 | 98 | 1013.3 | |
| 20260830202106 | 57 | 0.0 | 0.0 | 0.00 | 0.01 | 0.01 | 97 | 1013.3 | |
| 20260830200140 | 57 | 0.0 | 0.0 | 0.00 | 0.01 | 0.01 | 97 | 1013.3 | |
| 20260830195057 | 58 | 0.0 | 0.0 | 0.00 | 0.01 | 0.01 | 96 | 1013.3 | |
| 20260830194054 | 59 | 0.0 | 0.0 | 0.00 | 0.01 | 0.01 | 95 | 1013.3 | |
| 20260830193051 | 60 | 0.0 | 0.0 | 0.00 | 0.01 | 0.01 | 94 | 1013.4 | |
| 20260830191044 | 61 | 0.0 | 0.0 | 0.00 | 0.01 | 0.01 | 92 | 1013.3 | |
| 20260830190041 | 62 | 0.0 | 0.0 | 0.00 | 0.01 | 0.01 | 89 | 1013.2 | |
| 20260830185038 | 63 | 0.0 | 0.0 | 0.00 | 0.01 | 0.01 | 88 | 1013.2 | |
| 20260830181025 | 67 | 0.0 | 0.0 | 0.00 | 0.01 | 0.01 | 79 | 1012.8 | |
| 20260830174016 | 70 | 0.0 | 0.0 | 0.00 | 0.01 | 0.01 | 76 | 1012.5 | |
| 20260830173113 | 70 | 0.0 | 0.0 | 0.00 | 0.01 | 0.01 | 76 | 1012.5 | |
| 20260830172109 | 72 | 0.0 | 0.0 | 0.00 | 0.01 | 0.01 | 75 | 1012.6 | |
| 20260830171106 | 73 | 0.0 | 0.0 | 0.00 | 0.01 | 0.01 | 70 | 1012.5 | |
| 20260830170103 | 75 | 0.0 | 1.7 | 0.00 | 0.01 | 0.01 | 62 | 1012.5 |